Regional Weather Roundup
Issued by NWS

Home | Current Version | Previous Version | Graphics & Text | Print | Product List | Glossary On
Versions: 1 2 3 4 5 6 7 8 9 10 11 12 13 14 15 16 17 18 19 20 21 22 23 24 25 26 27
000
ASUS45 KBOU 252207
RWRCO

WEATHER ROUNDUP FOR COLORADO
NATIONAL WEATHER SERVICE DENVER/BOULDER CO
400 PM MDT THU MAY 25 2017

NOTE: "FAIR" INDICATES FEW OR NO CLOUDS BELOW 12000 FEET WITH NO
SIGNIFICANT WEATHER AND/OR OBSTRUCTIONS TO VISIBILITY.

COZ001>005-013-030-031-252300-
...NORTHWEST COLORADO...

CITY           SKY/WX    TMP DP  RH WIND       PRES   REMARKS
CRAIG          CLOUDY    52  43  71 W6        29.74R
HAYDEN         CLOUDY    52  36  54 W25G37    29.74R
MEEKER         PTSUNNY   57  44  62 CALM      29.75R
RABBIT EARS PA CLOUDY    43  32  65 SW10G22   29.91R
STEAMBOAT SPGS PTSUNNY   57  43  59 E9        29.71F
WALDEN           N/A     54  34  47 SW18      29.79F
$$

COZ006>008-011-252300-
...WEST CENTRAL VALLEYS...

CITY           SKY/WX    TMP DP  RH WIND       PRES   REMARKS
GRAND JUNCTION FAIR      76  30  18 SW15      29.64R
MONTROSE       FAIR      77  23  13 SW16G32   29.67F
EAGLE          MOSUNNY   72  30  21 SW17G25   29.71F
RIFLE          FAIR      70  37  29 N7G25     29.64R
DELTA          FAIR      79  23  12 NW23G30   29.65R
NUCLA          NOT AVBL
$$

COZ017>023-064>068-252300-
...SOUTHWEST COLORADO...

CITY           SKY/WX    TMP DP  RH WIND       PRES   REMARKS
DURANGO        FAIR      73  16  11 SW16G35   29.78F
CORTEZ         FAIR      80  22  11 SW23G36   29.71F
PAGOSA SPRINGS NOT AVBL
TELLURIDE      FAIR      65  18  16 SW17G24   29.91F
WOLF CREEK PAS PTSUNNY   43  18  36 SW17G33   30.12R
$$

COZ009-010-012-014-032>034-037-058>063-252300-
...CENTRAL COLORADO...

CITY           SKY/WX    TMP DP  RH WIND       PRES   REMARKS
ASPEN          FAIR      56  39  53 SE17G25   29.82F
BUENA VISTA    CLOUDY    65  25  22 W6G23     29.84R
COPPER MTN     PTSUNNY   37  28  70 S24G36    30.03S
BERTHOUD PASS  PTSUNNY   34  25  69 W29G51    30.01F WCI  20
COTTONWOOD PAS FAIR      54  23  30 SW32G58   29.88R
GUNNISON       FAIR      62  33  33 N23G30    29.81R
KREMMLING      FAIR      61  43  51 NE5       29.78F
LEADVILLE      FAIR      45  37  73 E9        29.93F
MONARCH PASS   PTSUNNY   43  23  45 W32G40    30.14R
SALIDA         PTSUNNY   72  17  12 NW28G35   29.85R
SUNLIGHT       PTSUNNY   46  23  39 SW22G43   29.94F
WILKERSON PASS CLOUDY    48  21  34 W14G30    30.01R
$$

COZ069>075-252300-
...SAN LUIS VALLEY/SANGRE DE CRISTO MOUNTAINS...

CITY           SKY/WX    TMP DP  RH WIND       PRES   REMARKS
ALAMOSA        FAIR      75  14  10 W33G45    29.78F
DEL NORTE      FAIR      71  16  12 W31G40    29.81S
LA VETA PASS   FAIR      59  16  18 MISG      30.04S THUNDER
SAGUACHE       FAIR      73  16  11 NW30G39   29.78S
$$

COZ035-036-038>040-252300-
...NORTHERN COLORADO FRONT RANGE...

CITY           SKY/WX    TMP DP  RH WIND       PRES   REMARKS
DENVER INTL AP PTSUNNY   64  47  53 E20       29.60F
DMNS CITY PARK   N/A     69  40  35 NE13G21   29.64R
AURORA         PTSUNNY   65  42  43 NE15      29.65S
FRONT RANGE AP NOT AVBL
ERIE MUNI ARPT FAIR      66  48  51 N6        29.66R
BOULDER MUN AP FAIR      64  36  34 NW14G24   29.68R
CENTENNIAL     PTSUNNY   69  41  36 NE15G24   29.65R
BROOMFIELD     NOT AVBL
FORT COLLINS   PTSUNNY   65  41  41 SW12      29.67R
LONGMONT       FAIR      65  42  43 W15       29.68R
$$

COZ041-046-047-076>085-087-088-252300-
...PIKES PEAK/PALMER DIVIDE AND SOUTHERN FOOTHILLS...

CITY           SKY/WX    TMP DP  RH WIND       PRES   REMARKS
COLO. SPRINGS  PTSUNNY   78  15   9 W10G16    29.63R
A. F. ACADEMY  PTSUNNY   69  39  33 N23G38    29.66R
SCHRIEVER AFB  FAIR      75  23  14 SW8G23    29.63
CHEYENNE MTN   PTSUNNY   73  16  11 NE13G29   29.62R
ELLICOTT       FAIR     N/A N/A N/A W13G20    29.63R
FALCON         FAIR      72  25  17 NE7G16    29.69R
FORT CARSON    FAIR      81  16   9 W14G20    29.59S
LIMON          CLOUDY    71  31  22 NW13G39   29.59R
MONUMENT HILL  FAIR      66  41  39 N31G40    29.73R
CANON CITY     NOT AVBL
WALSENBURG     FAIR      81  23  12 W36G43    29.64S
TRINIDAD       FAIR      83  17   8 W28G38    29.64F
$$

COZ042>045-048>051-090-091-252300-
...NORTHEAST COLORADO...

CITY           SKY/WX    TMP DP  RH WIND       PRES   REMARKS
GREELEY ARPT   FAIR      66  51  58 W6        29.64R
AKRON          TSTM      55  49  80 E12       29.62F
BURLINGTON     FAIR      76  51  41 N18G26    29.54R
WRAY           TSTM      63  50  63 NW15G21   29.61R
YUMA           CLOUDY    57  50  77 NE9G17    29.61S
STERLING       PTSUNNY   64  54  68 CALM      29.63R
HOLYOKE        NOT AVBL
FORT MORGAN    PTSUNNY   66  47  48 N13       29.65R
$$

COZ086-089-092>099-252300-
...SOUTHEAST COLORADO...

CITY           SKY/WX    TMP DP  RH WIND       PRES   REMARKS
PUEBLO         FAIR      88  25  10 SW22G32   29.52F
LA JUNTA       FAIR      91  25   9 SW23G33   29.49F
LAMAR          FAIR      92  32  12 SW21G30   29.44F
SPRINGFIELD      N/A     87  36  16 VRB6      29.52F
$$




USA.gov is the U.S. government's official web portal to all federal, state and local government web resources and services.